Location: Coopersdale
(40.3556°N, 78.9372°W)
Time: 19:10:14
(UTC+00:00)

Transit 4A - Pass Details

Date: 27 January 2021
Orbit: 866 x 978 km, 66.8° (Epoch: 26 February)

Event Time Altitude Azimuth Distance (km) Brightness Sun altitude
Rises 21:31:11 0° 152° (SSE) 3,655 11.1 8.8°
Reaches altitude 10° 21:35:23 10° 125° (SE) 2,721 10.2 8.1°
Maximum altitude 21:38:00 13° 101° (E) 2,524 9.8 7.7°
Drops below altitude 10° 21:40:37 10° 76° (ENE) 2,728 9.8 7.3°
Sets 21:44:49 0° 50° (NE) 3,673 10.3 6.6°
